F3965 Weather Reports


time (UTC)temp
F
wind
direction
speed
knots
gust
knots
rain 1hr
in
rain 24hr
in
rain mn
in
humidity
%
barometer
mb
20260508024552 50 0 0.0 4.3 0.00 0.05 0.00 57 1010.2
20260508023030 50 0 0.0 0.0 0.00 0.05 0.00 57 1010.1
20260508021531 50 0 0.0 0.0 0.00 0.05 0.00 57 1010.0
20260508020035 50 0 0.0 0.0 0.00 0.05 0.00 57 1010.2
20260508014536 51 0 0.0 1.7 0.00 0.05 0.00 56 1010.1
20260508013035 51 184 1.7 6.1 0.00 0.05 0.00 57 1010.2
20260508011532 51 0 0.0 1.7 0.00 0.05 0.00 56 1010.3
20260508010042 52 0 0.0 2.6 0.00 0.05 0.00 57 1010.6
20260508004543 51 0 0.0 4.3 0.00 0.05 0.00 56 1010.7
20260508003030 52 176 3.5 7.0 0.00 0.05 0.00 56 1010.6
20260508001538 52 211 3.5 6.1 0.00 0.05 0.00 56 1010.5
20260508000032 52 198 1.7 2.6 0.00 0.05 0.00 56 1010.7
20260507234534 53 0 0.0 2.6 0.00 0.05 0.00 56 1010.8
20260507233034 53 200 0.9 3.5 0.00 0.05 0.00 55 1010.7
20260507231534 53 202 2.6 5.2 0.00 0.05 0.00 55 1010.8
20260507230030 53 191 0.9 3.5 0.00 0.05 0.00 55 1010.9
20260507224532 54 0 0.0 0.0 0.00 0.05 0.00 55 1011.0
20260507223030 54 0 0.0 0.0 0.00 0.05 0.00 54 1011.0
20260507221536 54 0 0.0 0.0 0.00 0.05 0.00 55 1011.0
20260507220031 54 0 0.0 0.0 0.00 0.05 0.00 54 1011.0
20260507214535 55 0 0.0 0.0 0.00 0.05 0.05 54 1011.0
20260507213032 56 0 0.0 0.0 0.00 0.05 0.05 54 1010.8
20260507211533 56 0 0.0 0.0 0.00 0.05 0.05 54 1010.7
20260507210038 56 0 0.0 0.0 0.00 0.05 0.05 53 1010.7
20260507204531 57 0 0.0 0.0 0.00 0.05 0.05 53 1010.6
20260507203042 57 0 0.0 0.0 0.00 0.05 0.05 53 1010.2
20260507201533 58 0 0.0 0.0 0.00 0.05 0.05 52 1010.2
20260507200035 59 0 0.0 0.0 0.00 0.05 0.05 52 1010.0
20260507194534 60 0 0.0 0.0 0.00 0.05 0.05 51 1009.9
20260507193037 60 0 0.0 0.0 0.00 0.05 0.05 50 1009.8
20260507191538 61 0 0.0 0.0 0.00 0.05 0.05 47 1009.7
20260507190034 61 0 0.0 1.7 0.00 0.05 0.05 47 1009.7
20260507184530 60 0 0.0 2.6 0.00 0.05 0.05 49 1009.7
20260507183035 60 0 0.0 2.6 0.00 0.05 0.05 51 1009.7
20260507181534 60 256 4.3 8.7 0.00 0.05 0.05 51 1009.5
20260507180037 61 249 0.0 7.8 0.00 0.04 0.04 51 1009.5
20260507174543 61 0 0.0 0.0 0.02 0.04 0.04 52 1009.6
20260507173052 60 0 0.0 2.6 0.04 0.04 0.04 50 1009.6
20260507171538 60 0 0.9 3.5 0.04 0.04 0.04 51 1009.7
20260507170039 61 221 4.3 13.0 0.04 0.04 0.04 51 1010.0
20260507164535 63 28 4.3 10.4 0.01 0.01 0.01 46 1010.1
20260507163033 66 27 5.2 12.2 0.00 0.00 0.00 41 1010.2
20260507161540 67 25 9.6 17.4 0.00 0.00 0.00 38 1009.7
20260507160038 68 10 12.2 23.5 0.00 0.00 0.00 34 1009.3
20260507154532 72 0 0.0 2.6 0.00 0.02 0.00 35 1008.7
20260507153033 73 197 1.7 8.7 0.00 0.02 0.00 33 1008.6
20260507151534 73 195 2.6 11.3 0.00 0.02 0.00 33 1008.4
20260507150039 73 175 5.2 10.4 0.00 0.02 0.00 35 1008.5
20260507144535 72 166 5.2 11.3 0.00 0.06 0.00 38 1008.7
20260507143043 71 164 5.2 10.4 0.00 0.06 0.00 42 1008.9
20260507141546 71 211 4.3 10.4 0.00 0.06 0.00 42 1009.0
20260507140032 68 189 3.5 9.6 0.00 0.06 0.00 44 1009.0
20260507134534 68 188 0.9 9.6 0.00 0.06 0.00 46 1009.3
20260507133105 70 180 5.2 11.3 0.00 0.06 0.00 43 1009.4
20260507131538 72 168 4.3 8.7 0.00 0.06 0.00 39 1009.4
20260507130036 73 181 1.7 6.1 0.00 0.06 0.00 38 1009.5
20260507124534 72 221 2.6 7.0 0.00 0.06 0.00 38 1009.7
20260507123039 71 70 0.9 3.5 0.00 0.06 0.00 37 1010.0
20260507121537 70 68 0.9 6.1 0.00 0.06 0.00 40 1010.2
20260507120036 69 85 2.6 7.8 0.00 0.06 0.00 39 1010.6
20260507114539 69 90 0.9 6.1 0.00 0.06 0.00 41 1010.8
20260507113036 69 188 0.0 6.1 0.00 0.06 0.00 42 1010.8
20260507111531 68 234 1.7 3.5 0.00 0.06 0.00 41 1010.9
20260507110040 67 194 4.3 9.6 0.00 0.06 0.00 40 1011.1
20260507104534 65 0 1.7 5.2 0.00 0.06 0.00 41 1011.4
20260507103038 64 181 0.0 6.1 0.00 0.06 0.00 41 1011.5
20260507101536 63 247 1.7 6.1 0.00 0.06 0.00 41 1011.7
20260507100032 61 304 3.5 7.8 0.00 0.06 0.00 45 1011.9
20260507094542 60 0 0.9 6.1 0.00 0.06 0.00 47 1012.1
20260507093034 58 215 1.7 5.2 0.00 0.06 0.00 51 1012.2
20260507091535 56 205 1.7 3.5 0.00 0.06 0.00 57 1012.4
20260507090035 53 205 0.9 5.2 0.00 0.06 0.00 63 1012.6
20260507084531 51 217 1.7 4.3 0.00 0.06 0.00 66 1012.7
20260507083032 50 213 0.9 3.5 0.00 0.06 0.00 66 1012.9
20260507081539 49 214 0.9 4.3 0.00 0.06 0.00 67 1013.1
20260507080031 48 182 1.7 3.5 0.00 0.06 0.00 67 1013.2
20260507074534 48 179 0.9 2.6 0.00 0.06 0.00 67 1013.4
20260507073031 47 0 0.9 2.6 0.00 0.06 0.00 67 1013.3
20260507071530 46 180 1.7 3.5 0.00 0.06 0.00 67 1013.3
20260507070044 46 182 0.0 2.6 0.00 0.06 0.00 67 1013.5
20260507064541 46 177 0.9 5.2 0.00 0.06 0.00 67 1013.5
20260507063035 46 181 3.5 7.0 0.00 0.06 0.00 67 1013.5
20260507061537 46 207 1.7 4.3 0.00 0.06 0.00 67 1013.5
20260507060032 45 171 0.9 5.2 0.00 0.06 0.00 67 1013.6
20260507054533 45 171 0.9 6.1 0.00 0.06 0.00 67 1013.6
20260507053034 45 232 2.6 6.1 0.00 0.06 0.00 66 1013.7
20260507051532 45 200 1.7 4.3 0.00 0.06 0.00 67 1013.5
20260507050036 45 198 2.6 4.3 0.00 0.06 0.00 67 1013.5
20260507044531 45 167 0.9 4.3 0.00 0.06 0.00 66 1013.6
20260507043030 45 167 2.6 5.2 0.00 0.06 0.00 66 1013.8
20260507041534 46 173 0.9 4.3 0.00 0.06 0.00 66 1013.6
20260507040041 46 173 1.7 4.3 0.00 0.06 0.00 66 1013.7
20260507034540 46 173 0.9 4.3 0.00 0.06 0.00 66 1013.7
20260507033043 46 180 1.7 3.5 0.00 0.06 0.00 66 1013.9
20260507031545 46 194 0.9 3.5 0.00 0.06 0.00 66 1013.9
20260507030033 46 200 0.0 2.6 0.00 0.06 0.00 66 1013.8